• In United Kingdom
  • List of Countries
  • For 7 days
  • Water Temperature
  • Satellite Maps
  • Weather Map
  • Weather Widgets
  • user-avatar
    Login

    Hourly Weather Inhambane

    Today, 25 November, Saturday

    Time Temperature Precipitation Wind Pressure Humidity
    00:00 +18°C° 0 mm 2 mps 724 mmHg 67%
    01:00 +18°C° 0 mm 2 mps 724 mmHg 69%
    02:00 +17°C° 0 mm 2 mps 724 mmHg 70%
    03:00 +17°C° 0 mm 2 mps 724 mmHg 72%
    04:00 +16°C° 0 mm 2 mps 724 mmHg 73%
    05:00 +16°C° 0 mm 2 mps 724 mmHg 74%
    06:00 +17°C° 0 mm 2 mps 724 mmHg 68%
    07:00 +20°C° 0 mm 1 mps 724 mmHg 62%
    08:00 +21°C° 0 mm 1 mps 724 mmHg 56%
    09:00 +22°C° 0 mm 1 mps 725 mmHg 50%
    10:00 +24°C° 0 mm 1 mps 725 mmHg 44%
    11:00 +25°C° 0 mm 1 mps 725 mmHg 37%
    12:00 +26°C° 0 mm 1 mps 724 mmHg 35%
    13:00 +26°C° 0 mm 2 mps 724 mmHg 32%
    14:00 +27°C° 0 mm 2 mps 724 mmHg 30%
    15:00 +26°C° 0 mm 2 mps 724 mmHg 33%
    16:00 +25°C° 0 mm 2 mps 724 mmHg 37%
    17:00 +24°C° 0 mm 2 mps 723 mmHg 40%
    18:00 +24°C° 0 mm 2 mps 724 mmHg 46%
    19:00 +23°C° 0 mm 2 mps 724 mmHg 52%
    20:00 +21°C° 0 mm 2 mps 724 mmHg 57%
    21:00 +21°C° 0 mm 1 mps 724 mmHg 61%
    22:00 +21°C° 0 mm 1 mps 725 mmHg 65%
    23:00 +20°C° 0 mm 1 mps 725 mmHg 69%

    Tomorrow, 26 November, Sunday

    Time Temperature Precipitation Wind Pressure Humidity
    00:00 +20°C° 0 mm 1 mps 725 mmHg 70%
    01:00 +19°C° 0 mm 1 mps 724 mmHg 70%
    02:00 +19°C° 0 mm 1 mps 724 mmHg 71%
    03:00 +18°C° 0 mm 1 mps 724 mmHg 70%
    04:00 +18°C° 0 mm 1 mps 724 mmHg 69%
    05:00 +18°C° 0 mm 1 mps 724 mmHg 68%
    06:00 +19°C° 0 mm 1 mps 725 mmHg 61%
    07:00 +21°C° 0 mm 1 mps 725 mmHg 54%
    08:00 +22°C° 0 mm 1 mps 726 mmHg 46%
    09:00 +23°C° 0 mm 1 mps 726 mmHg 41%
    10:00 +24°C° 0 mm 1 mps 726 mmHg 36%
    11:00 +26°C° 0 mm 1 mps 726 mmHg 31%
    12:00 +26°C° 0 mm 1 mps 725 mmHg 29%
    13:00 +27°C° 0 mm 2 mps 725 mmHg 27%
    14:00 +28°C° 0 mm 2 mps 725 mmHg 25%
    15:00 +27°C° 0 mm 3 mps 725 mmHg 29%
    16:00 +25°C° 0 mm 3 mps 724 mmHg 32%
    17:00 +24°C° 0 mm 3 mps 724 mmHg 36%
    18:00 +24°C° 0 mm 3 mps 725 mmHg 43%
    19:00 +22°C° 0 mm 3 mps 725 mmHg 49%
    20:00 +21°C° 0 mm 3 mps 725 mmHg 56%
    21:00 +20°C° 0 mm 3 mps 725 mmHg 60%
    22:00 +20°C° 0 mm 2 mps 725 mmHg 64%
    23:00 +19°C° 0 mm 2 mps 725 mmHg 69%

    Day after tomorrow, 27 November, Monday

    Time Temperature Precipitation Wind Pressure Humidity
    00:00 +19°C° 0 mm 2 mps 725 mmHg 70%
    01:00 +18°C° 0 mm 2 mps 725 mmHg 72%
    02:00 +18°C° 0 mm 2 mps 725 mmHg 74%
    03:00 +18°C° 0 mm 2 mps 725 mmHg 75%
    04:00 +17°C° 0 mm 2 mps 725 mmHg 77%
    05:00 +17°C° 0 mm 2 mps 725 mmHg 78%
    06:00 +18°C° 0 mm 2 mps 725 mmHg 72%
    07:00 +19°C° 0 mm 3 mps 726 mmHg 66%
    08:00 +20°C° 0 mm 3 mps 726 mmHg 59%
    09:00 +22°C° 0 mm 3 mps 726 mmHg 53%
    10:00 +24°C° 0 mm 3 mps 726 mmHg 46%
    11:00 +25°C° 0 mm 4 mps 726 mmHg 39%
    12:00 +26°C° 0 mm 4 mps 726 mmHg 37%
    13:00 +26°C° 0 mm 4 mps 725 mmHg 35%
    14:00 +27°C° 0 mm 4 mps 725 mmHg 33%
    15:00 +26°C° 0 mm 4 mps 725 mmHg 37%
    16:00 +25°C° 0 mm 5 mps 724 mmHg 41%
    17:00 +23°C° 0 mm 5 mps 724 mmHg 45%
    18:00 +22°C° 0 mm 4 mps 725 mmHg 50%
    19:00 +21°C° 0 mm 4 mps 725 mmHg 55%
    20:00 +20°C° 0 mm 3 mps 726 mmHg 61%
    21:00 +20°C° 0 mm 3 mps 725 mmHg 63%
    22:00 +19°C° 0 mm 3 mps 725 mmHg 65%
    23:00 +19°C° 0 mm 2 mps 725 mmHg 68%

    28 November, Tuesday

    Time Temperature Precipitation Wind Pressure Humidity
    00:00 +18°C° 0 mm 2 mps 725 mmHg 69%
    01:00 +18°C° 0 mm 2 mps 724 mmHg 70%
    02:00 +17°C° 0 mm 2 mps 724 mmHg 71%
    03:00 +17°C° 0 mm 2 mps 724 mmHg 72%
    04:00 +17°C° 0 mm 2 mps 724 mmHg 72%
    05:00 +16°C° 0 mm 2 mps 724 mmHg 73%
    06:00 +18°C° 0 mm 2 mps 725 mmHg 67%
    07:00 +19°C° 0 mm 2 mps 725 mmHg 60%
    08:00 +20°C° 0 mm 2 mps 726 mmHg 54%
    09:00 +23°C° 0 mm 2 mps 725 mmHg 48%
    10:00 +24°C° 0 mm 2 mps 725 mmHg 41%
    11:00 +25°C° 0 mm 2 mps 725 mmHg 34%
    12:00 +26°C° 0 mm 3 mps 725 mmHg 32%
    13:00 +27°C° 0 mm 3 mps 724 mmHg 30%
    14:00 +27°C° 0 mm 3 mps 724 mmHg 29%
    15:00 +26°C° 0 mm 3 mps 724 mmHg 33%
    16:00 +25°C° 0 mm 4 mps 724 mmHg 37%
    17:00 +23°C° 0 mm 4 mps 723 mmHg 41%
    18:00 +22°C° 0 mm 4 mps 724 mmHg 48%
    19:00 +22°C° 0 mm 3 mps 724 mmHg 55%
    20:00 +21°C° 0 mm 3 mps 725 mmHg 62%
    21:00 +20°C° 0 mm 3 mps 725 mmHg 66%
    22:00 +20°C° 0 mm 2 mps 725 mmHg 70%
    23:00 +19°C° 0 mm 2 mps 725 mmHg 74%

    29 November, Wednesday

    Time Temperature Precipitation Wind Pressure Humidity
    00:00 +18°C° 0 mm 2 mps 724 mmHg 76%
    01:00 +18°C° 0 mm 2 mps 724 mmHg 78%
    02:00 +17°C° 0 mm 2 mps 724 mmHg 80%
    03:00 +17°C° 0 mm 2 mps 724 mmHg 80%
    04:00 +17°C° 0 mm 2 mps 724 mmHg 81%
    05:00 +16°C° 0 mm 2 mps 724 mmHg 81%
    06:00 +19°C° 0 mm 1 mps 725 mmHg 73%
    07:00 +20°C° 0 mm 1 mps 725 mmHg 66%
    08:00 +22°C° 0 mm 1 mps 726 mmHg 58%
    09:00 +23°C° 0 mm 2 mps 726 mmHg 50%
    10:00 +24°C° 0 mm 2 mps 726 mmHg 42%
    11:00 +26°C° 0 mm 2 mps 726 mmHg 35%
    12:00 +26°C° 0 mm 2 mps 725 mmHg 32%
    13:00 +27°C° 0 mm 3 mps 725 mmHg 29%
    14:00 +28°C° 0 mm 3 mps 724 mmHg 26%
    15:00 +27°C° 0 mm 3 mps 724 mmHg 30%
    16:00 +26°C° 0 mm 3 mps 724 mmHg 34%
    17:00 +25°C° 0 mm 4 mps 724 mmHg 38%
    18:00 +23°C° 0 mm 4 mps 725 mmHg 44%
    19:00 +22°C° 0 mm 3 mps 725 mmHg 50%
    20:00 +21°C° 0 mm 3 mps 725 mmHg 56%
    21:00 +20°C° 0 mm 3 mps 725 mmHg 59%
    22:00 +20°C° 0 mm 3 mps 725 mmHg 63%
    23:00 +19°C° 0 mm 2 mps 725 mmHg 66%

    30 November, Thursday

    Time Temperature Precipitation Wind Pressure Humidity
    00:00 +19°C° 0 mm 2 mps 725 mmHg 68%
    01:00 +18°C° 0 mm 2 mps 725 mmHg 69%
    02:00 +18°C° 0 mm 2 mps 724 mmHg 71%
    03:00 +17°C° 0 mm 2 mps 724 mmHg 71%
    04:00 +17°C° 0 mm 2 mps 724 mmHg 72%
    05:00 +17°C° 0 mm 2 mps 724 mmHg 73%
    06:00 +18°C° 0 mm 3 mps 725 mmHg 66%
    07:00 +19°C° 0 mm 3 mps 725 mmHg 59%
    08:00 +21°C° 0 mm 3 mps 726 mmHg 53%
    09:00 +22°C° 0 mm 3 mps 726 mmHg 46%
    10:00 +24°C° 0 mm 3 mps 725 mmHg 39%
    11:00 +26°C° 0 mm 3 mps 725 mmHg 32%
    12:00 +26°C° 0 mm 4 mps 725 mmHg 30%
    13:00 +27°C° 0 mm 4 mps 724 mmHg 28%
    14:00 +28°C° 0 mm 4 mps 724 mmHg 25%
    15:00 +27°C° 0 mm 4 mps 724 mmHg 29%
    16:00 +26°C° 0 mm 5 mps 724 mmHg 33%
    17:00 +25°C° 0 mm 5 mps 724 mmHg 37%
    18:00 +23°C° 0 mm 4 mps 724 mmHg 42%
    19:00 +22°C° 0 mm 4 mps 724 mmHg 48%
    20:00 +21°C° 0 mm 4 mps 724 mmHg 53%
    21:00 +20°C° 0 mm 3 mps 724 mmHg 56%
    22:00 +19°C° 0 mm 3 mps 724 mmHg 58%
    23:00 +19°C° 0 mm 2 mps 724 mmHg 60%
    Show more